Regional Weather Roundup
Issued by NWS

Home | Current Version | Previous Version | Graphics & Text | Print | Product List | Glossary On
Versions: 1 2 3 4 5 6 7 8 9 10 11 12 13 14 15 16 17 18 19 20 21 22 23 24 25 26 27 28 29 30 31 32 33 34 35 36 37 38 39 40 41 42 43 44 45 46 47 48 49 50
000
ASUS43 KFSD 301202
RWRSD

WEATHER ROUNDUP FOR SOUTH DAKOTA
NATIONAL WEATHER SERVICE SIOUX FALLS SD
600 AM CST FRI JAN 30 2015

NOTE: "FAIR" INDICATES FEW OR NO CLOUDS BELOW 12,000 FEET WITH NO
SIGNIFICANT WEATHER AND/OR OBSTRUCTIONS TO VISIBILITY.


SDZ001>005-009-010-012>017-301300-
NORTHWEST AND NORTH CENTRAL SOUTH DAKOTA

CITY           SKY/WX    TMP DP  RH WIND       PRES   REMARKS
BUFFALO          N/A     26  16  65 CALM      30.11F
FAITH            N/A     22  16  78 S18       30.19F WCI   7
MOBRIDGE       PTCLDY    21  18  88 S15       30.25F WCI   8
$$

SDZ012>016-024>037-041>051-057-063-072>074-301300-
SOUTHWEST AND SOUTH CENTRAL SOUTH DAKOTA

CITY           SKY/WX    TMP DP  RH WIND       PRES   REMARKS
RAPID CTY ARPT PTCLDY    19  14  81 CALM      30.19F
PIERRE         CLEAR     20  18  92 SE10      30.29F WCI   9
CUSTER         MOCLDY    31  21  66 CALM      30.17F
ELLSWORTH AFB  PTCLDY    23  16  75 NW8       30.18F WCI  13
PHILIP         PTCLDY    18  14  84 E6        30.25F WCI  10
PINE RIDGE     MOCLDY    32  19  58 SW14      30.24S WCI  22
WINNER         FAIR      26  20  77 S15       30.32F WCI  14
$$

SDZ004>011-016>023-039-040-301300-
NORTHEAST SOUTH DAKOTA

CITY           SKY/WX    TMP DP  RH WIND       PRES   REMARKS
ABERDEEN       CLEAR     17  13  84 S6        30.42S WCI   9
WATERTOWN      CLOUDY    17  14  88 S13       30.39F WCI   4
SISSETON         N/A     15  13  91 SE8       30.43F WCI   4
$$

SDZ017-020-022-023-036>040-048>070-301300-
SOUTHEAST SOUTH DAKOTA

CITY           SKY/WX    TMP DP  RH WIND       PRES   REMARKS
SIOUX FALLS    MOCLDY    19  15  84 S6        30.46F WCI  11
HURON          CLEAR     17  14  88 SE8       30.43F WCI   7
MITCHELL       CLEAR     20  17  88 SE7       30.45F WCI  11
YANKTON        PTCLDY    18  16  93 S5        30.48F WCI  11
$$

ABBREVIATIONS USED IN REMARKS
   TC - TEMPERATURE IN CELSIUS
  WCI - WIND CHILL INDEX
   HX - HEAT INDEX
  VSB - VISIBILITY



USA.gov is the U.S. government's official web portal to all federal, state and local government web resources and services.